Location: Ohmer (historical)
(38.0096°N, 122.0227°W)
Time: 00:54:53
(UTC+00:00)

Cosmos 2123 Rocket - Pass Details

Date: 14 February 2026
Orbit: 960 x 992 km, 82.9° (Epoch: 10 March)

Event Time Altitude Azimuth Distance (km) Brightness Sun altitude
Rises 12:21:57 0° 357° (N) 3,674 7.1 -31.5°
Reaches altitude 10° 12:24:32 10° 1° (N) 2,719 6.4 -31.0°
Maximum altitude 12:30:39 58° 80° (E) 1,115 4.5 -29.8°
Drops below altitude 10° 12:36:42 10° 159° (SSE) 2,687 6.4 -28.6°
Sets 12:39:13 0° 163° (SSE) 3,627 7.1 -28.1°
